TimeEST,TemperatureF,Dew PointF,Humidity,Sea Level PressureIn,VisibilityMPH,Wind Direction,Wind SpeedMPH,Gust SpeedMPH,PrecipitationIn,Events,Conditions,WindDirDegrees,DateUTC
12:53 AM,46.9,43.0,86,29.65,3.0,WSW,21.9,29.9,0.06,Rain,Rain,250,2013-02-19 05:53:00
1:07 AM,41.0,35.6,81,29.68,6.0,West,17.3,36.8,0.03,Rain,Light Rain,280,2013-02-19 06:07:00
1:20 AM,39.2,35.6,87,29.69,10.0,WNW,20.7,32.2,0.03,Rain,Light Rain,290,2013-02-19 06:20:00
1:53 AM,36.0,33.1,89,29.72,9.0,West,13.8,28.8,0.03,,Overcast,280,2013-02-19 06:53:00
2:53 AM,35.1,30.9,85,29.76,6.0,West,18.4,25.3,0.01,Snow,Light Snow,270,2013-02-19 07:53:00
3:40 AM,33.8,28.4,81,29.77,10.0,West,18.4,23.0,0.00,,Overcast,260,2013-02-19 08:40:00
3:53 AM,32.0,27.0,82,29.78,10.0,West,20.7,28.8,0.00,,Overcast,280,2013-02-19 08:53:00
4:23 AM,30.2,24.8,80,29.79,10.0,WNW,18.4,28.8,N/A,,Overcast,290,2013-02-19 09:23:00
4:53 AM,30.9,25.0,79,29.81,10.0,West,17.3,23.0,N/A,,Overcast,280,2013-02-19 09:53:00
5:53 AM,30.0,21.9,72,29.83,10.0,WNW,10.4,-,N/A,,Overcast,290,2013-02-19 10:53:00
6:53 AM,28.9,19.0,67,29.86,10.0,West,17.3,29.9,N/A,,Overcast,280,2013-02-19 11:53:00
7:53 AM,28.9,19.9,69,29.88,10.0,West,17.3,26.5,N/A,,Overcast,280,2013-02-19 12:53:00
8:26 AM,28.4,17.6,64,29.89,10.0,West,20.7,29.9,N/A,,Overcast,270,2013-02-19 13:26:00
8:34 AM,28.4,17.6,64,29.89,10.0,West,16.1,29.9,N/A,,Overcast,280,2013-02-19 13:34:00
8:53 AM,28.0,18.0,66,29.91,10.0,West,15.0,26.5,N/A,,Overcast,280,2013-02-19 13:53:00
9:53 AM,28.0,17.1,63,29.93,10.0,West,18.4,28.8,N/A,,Overcast,280,2013-02-19 14:53:00
10:07 AM,28.4,17.6,64,29.92,10.0,West,20.7,31.1,N/A,,Overcast,270,2013-02-19 15:07:00
10:46 AM,28.4,17.6,64,29.93,10.0,West,19.6,32.2,N/A,,Overcast,280,2013-02-19 15:46:00
10:53 AM,28.0,18.0,66,29.95,10.0,West,17.3,32.2,N/A,,Overcast,260,2013-02-19 15:53:00
11:45 AM,28.4,17.6,64,29.95,10.0,West,18.4,27.6,N/A,,Overcast,270,2013-02-19 16:45:00
11:53 AM,28.0,16.0,61,29.96,10.0,West,19.6,31.1,N/A,,Overcast,280,2013-02-19 16:53:00
12:01 PM,26.6,15.8,64,29.96,10.0,WNW,18.4,29.9,N/A,,Overcast,290,2013-02-19 17:01:00
12:12 PM,26.6,17.6,69,29.96,10.0,WNW,17.3,26.5,N/A,,Overcast,290,2013-02-19 17:12:00
1:36 PM,26.6,15.8,64,29.98,10.0,West,17.3,31.1,N/A,,Overcast,280,2013-02-19 18:36:00
1:53 PM,27.0,15.1,61,30.01,10.0,WNW,16.1,26.5,N/A,,Overcast,290,2013-02-19 18:53:00
2:53 PM,27.0,15.1,61,30.02,10.0,West,19.6,29.9,N/A,,Overcast,280,2013-02-19 19:53:00
3:53 PM,27.0,14.0,58,30.05,10.0,West,16.1,21.9,N/A,,Overcast,260,2013-02-19 20:53:00
4:53 PM,26.1,12.0,55,30.09,10.0,WNW,17.3,33.4,N/A,,Overcast,290,2013-02-19 21:53:00
5:53 PM,26.1,14.0,60,30.11,10.0,West,16.1,26.5,N/A,,Overcast,280,2013-02-19 22:53:00
7:53 PM,25.0,12.9,60,30.16,10.0,West,13.8,21.9,0.00,,Overcast,280,2013-02-20 00:53:00
8:53 PM,24.1,14.0,65,30.16,9.0,WNW,13.8,-,0.00,Snow,Light Snow,290,2013-02-20 01:53:00
9:41 PM,24.8,12.2,59,30.13,10.0,WNW,13.8,21.9,0.00,,Overcast,300,2013-02-20 02:41:00
9:48 PM,24.8,12.2,59,30.13,10.0,WNW,12.7,21.9,0.00,,Overcast,290,2013-02-20 02:48:00
9:53 PM,24.1,12.9,62,30.17,10.0,WNW,13.8,19.6,0.00,,Overcast,290,2013-02-20 02:53:00
10:01 PM,24.8,12.2,59,30.14,10.0,West,11.5,21.9,N/A,,Overcast,280,2013-02-20 03:01:00
10:53 PM,24.1,10.0,55,30.18,10.0,NW,11.5,19.6,N/A,,Overcast,320,2013-02-20 03:53:00
11:53 PM,23.0,10.0,58,30.19,10.0,NW,12.7,18.4,N/A,,Mostly Cloudy,310,2013-02-20 04:53:00